Location: Newark
(19.2128°S, 49.7858°W)
Time: 04:28:10
(UTC+00:00)

Envisat - Pass Details

Date: 30 August 2019
Orbit: 764 x 766 km, 98.1° (Epoch: 15 September)

Event Time Altitude Azimuth Distance (km) Brightness Sun altitude
Rises 22:04:32 0° 167° (SSE) 3,251 6.1 -13.4°
Reaches altitude 10° 22:06:51 10° 166° (SSE) 2,319 5.3 -13.9°
Maximum altitude 22:11:58 81° 79° (ENE) 782 2.9 -15.2°
Drops below altitude 10° 22:17:02 10° 351° (N) 2,294 5.6 -16.3°
Sets 22:19:19 0° 350° (N) 3,214 6.4 -16.9°
